Location: Bishop�s Knoyle
(51.0728°N, 2.1714°W)
Time: 10:42:20
(UTC+00:00)

Nauka - Pass Details

Date: 28 September 2021
Orbit: 417 x 423 km, 51.6° (Epoch: 19 October)

Event Time Altitude Azimuth Distance (km) Brightness Sun altitude
Rises 18:57:27 0° 278° (W) 2,365 ? -10.9°
Reaches altitude 10° 18:59:33 10° 279° (W) 1,501 ? -11.3°
Maximum altitude 19:02:55 87° 4° (N) 425 ? -11.8°
Enters shadow 19:05:04 21° 98° (E) 1,005 ? -12.1°
